When you browse on this site, cookies collect data to enhance your experience and personalize the content and advertising you see.
Visit our Privacy Policy to learn more. By continuing to use the site, you agree to this use of cookies and data.
  • In Hungary
  • List of Countries
  • For 7 days
  • Water Temperature
  • Weather Map
  • News
  • Weather Widgets
  • user-avatar
    Login

    Hourly Weather Achhnera

    Today, 12 December, Thursday

    Time Temperature Precipitation Wind Pressure Humidity
    00:00 +17°C° 0 mm 2 mps 744 mmHg 55%
    01:00 +17°C° 0 mm 2 mps 744 mmHg 55%
    02:00 +17°C° 0 mm 2 mps 744 mmHg 55%
    03:00 +17°C° 0 mm 2 mps 744 mmHg 55%
    04:00 +16°C° 0 mm 2 mps 744 mmHg 56%
    05:00 +16°C° 0 mm 1 mps 744 mmHg 56%
    06:00 +16°C° 0 mm 2 mps 744 mmHg 55%
    07:00 +17°C° 0 mm 3 mps 745 mmHg 53%
    08:00 +18°C° 0 mm 4 mps 745 mmHg 52%
    09:00 +18°C° 0 mm 4 mps 745 mmHg 49%
    10:00 +19°C° 0 mm 5 mps 745 mmHg 46%
    11:00 +20°C° 0 mm 5 mps 745 mmHg 43%
    12:00 +21°C° 0 mm 5 mps 744 mmHg 42%
    13:00 +22°C° 0 mm 5 mps 743 mmHg 41%
    14:00 +23°C° 0 mm 6 mps 743 mmHg 41%
    15:00 +22°C° 0 mm 5 mps 742 mmHg 44%
    16:00 +20°C° 0 mm 4 mps 742 mmHg 48%
    17:00 +19°C° 0 mm 4 mps 742 mmHg 51%
    18:00 +18°C° 0 mm 4 mps 743 mmHg 54%
    19:00 +18°C° 0 mm 4 mps 743 mmHg 56%
    20:00 +17°C° 0 mm 4 mps 744 mmHg 58%
    21:00 +17°C° 0.2 mm 4 mps 744 mmHg 60%
    22:00 +17°C° 0.2 mm 4 mps 744 mmHg 62%
    23:00 +16°C° 0.2 mm 5 mps 744 mmHg 64%

    Tomorrow, 13 December, Friday

    Time Temperature Precipitation Wind Pressure Humidity
    00:00 +15°C° 0.6 mm 4 mps 743 mmHg 69%
    01:00 +15°C° 0.6 mm 4 mps 743 mmHg 74%
    02:00 +15°C° 0.6 mm 4 mps 743 mmHg 79%
    03:00 +16°C° 1 mm 3 mps 743 mmHg 83%
    04:00 +14°C° 1 mm 3 mps 743 mmHg 87%
    05:00 +15°C° 1 mm 2 mps 743 mmHg 91%
    06:00 +15°C° 0.1 mm 2 mps 743 mmHg 89%
    07:00 +16°C° 0.1 mm 3 mps 744 mmHg 87%
    08:00 +17°C° 0.1 mm 3 mps 745 mmHg 86%
    09:00 +18°C° 0 mm 3 mps 745 mmHg 79%
    10:00 +20°C° 0 mm 2 mps 745 mmHg 73%
    11:00 +21°C° 0 mm 2 mps 745 mmHg 67%
    12:00 +23°C° 0.1 mm 2 mps 744 mmHg 62%
    13:00 +24°C° 0.1 mm 2 mps 744 mmHg 58%
    14:00 +24°C° 0.1 mm 2 mps 743 mmHg 54%
    15:00 +23°C° 0.2 mm 2 mps 743 mmHg 59%
    16:00 +21°C° 0.2 mm 2 mps 743 mmHg 64%
    17:00 +20°C° 0.2 mm 2 mps 744 mmHg 69%
    18:00 +19°C° 0 mm 2 mps 744 mmHg 72%
    19:00 +18°C° 0 mm 2 mps 745 mmHg 76%
    20:00 +18°C° 0 mm 3 mps 746 mmHg 79%
    21:00 +17°C° 0 mm 3 mps 746 mmHg 83%
    22:00 +16°C° 0 mm 3 mps 746 mmHg 88%
    23:00 +16°C° 0 mm 3 mps 746 mmHg 93%

    Day after tomorrow, 14 December, Saturday

    Time Temperature Precipitation Wind Pressure Humidity
    00:00 +14°C° 0 mm 3 mps 746 mmHg 94%
    01:00 +14°C° 0 mm 3 mps 746 mmHg 95%
    02:00 +15°C° 0 mm 2 mps 746 mmHg 97%
    03:00 +15°C° 0 mm 2 mps 747 mmHg 96%
    04:00 +15°C° 0 mm 2 mps 747 mmHg 95%
    05:00 +16°C° 0 mm 2 mps 747 mmHg 94%
    06:00 +16°C° 0 mm 2 mps 748 mmHg 92%
    07:00 +17°C° 0 mm 2 mps 748 mmHg 89%
    08:00 +17°C° 0 mm 2 mps 749 mmHg 86%
    09:00 +18°C° 0 mm 2 mps 749 mmHg 83%
    10:00 +18°C° 0 mm 2 mps 749 mmHg 79%
    11:00 +19°C° 0 mm 2 mps 750 mmHg 76%
    12:00 +19°C° 0 mm 2 mps 749 mmHg 74%
    13:00 +20°C° 0 mm 2 mps 748 mmHg 71%
    14:00 +20°C° 0 mm 2 mps 748 mmHg 69%
    15:00 +20°C° 0 mm 2 mps 747 mmHg 70%
    16:00 +19°C° 0 mm 2 mps 747 mmHg 71%
    17:00 +19°C° 0 mm 2 mps 747 mmHg 72%
    18:00 +18°C° 0 mm 2 mps 747 mmHg 74%
    19:00 +17°C° 0 mm 2 mps 748 mmHg 76%
    20:00 +17°C° 0 mm 2 mps 748 mmHg 78%
    21:00 +16°C° 0 mm 2 mps 748 mmHg 79%
    22:00 +16°C° 0 mm 2 mps 748 mmHg 80%
    23:00 +16°C° 0 mm 2 mps 748 mmHg 81%

    15 December, Sunday

    Time Temperature Precipitation Wind Pressure Humidity
    00:00 +16°C° 0 mm 2 mps 748 mmHg 82%
    01:00 +15°C° 0 mm 2 mps 748 mmHg 82%
    02:00 +15°C° 0 mm 2 mps 747 mmHg 83%
    03:00 +15°C° 0 mm 2 mps 747 mmHg 84%
    04:00 +15°C° 0 mm 2 mps 747 mmHg 85%
    05:00 +14°C° 0 mm 2 mps 747 mmHg 86%
    06:00 +15°C° 0 mm 2 mps 747 mmHg 84%
    07:00 +15°C° 0 mm 2 mps 748 mmHg 82%
    08:00 +16°C° 0 mm 2 mps 748 mmHg 80%
    09:00 +17°C° 0 mm 2 mps 748 mmHg 73%
    10:00 +19°C° 0 mm 2 mps 748 mmHg 67%
    11:00 +20°C° 0 mm 2 mps 748 mmHg 60%
    12:00 +21°C° 0.2 mm 2 mps 747 mmHg 57%
    13:00 +23°C° 0.2 mm 2 mps 747 mmHg 55%
    14:00 +23°C° 0.2 mm 2 mps 746 mmHg 52%
    15:00 +21°C° 0 mm 2 mps 746 mmHg 55%
    16:00 +20°C° 0 mm 2 mps 746 mmHg 57%
    17:00 +19°C° 0 mm 2 mps 746 mmHg 60%
    18:00 +18°C° 0 mm 2 mps 746 mmHg 62%
    19:00 +17°C° 0 mm 2 mps 747 mmHg 64%
    20:00 +17°C° 0 mm 2 mps 747 mmHg 66%
    21:00 +16°C° 0 mm 2 mps 747 mmHg 68%
    22:00 +16°C° 0 mm 2 mps 748 mmHg 70%
    23:00 +15°C° 0 mm 2 mps 748 mmHg 72%

    16 December, Monday

    Time Temperature Precipitation Wind Pressure Humidity
    00:00 +15°C° 0 mm 2 mps 747 mmHg 73%
    01:00 +15°C° 0 mm 2 mps 747 mmHg 75%
    02:00 +15°C° 0 mm 2 mps 747 mmHg 77%
    03:00 +14°C° 0 mm 2 mps 747 mmHg 78%
    04:00 +14°C° 0 mm 2 mps 747 mmHg 79%
    05:00 +14°C° 0 mm 2 mps 747 mmHg 80%
    06:00 +14°C° 0 mm 2 mps 748 mmHg 78%
    07:00 +15°C° 0 mm 2 mps 748 mmHg 76%
    08:00 +15°C° 0 mm 1 mps 749 mmHg 74%
    09:00 +17°C° 0 mm 2 mps 749 mmHg 67%
    10:00 +19°C° 0 mm 2 mps 749 mmHg 61%
    11:00 +20°C° 0 mm 2 mps 749 mmHg 54%
    12:00 +21°C° 0 mm 2 mps 748 mmHg 52%
    13:00 +23°C° 0 mm 2 mps 748 mmHg 50%
    14:00 +23°C° 0 mm 2 mps 747 mmHg 48%
    15:00 +22°C° 0 mm 1 mps 747 mmHg 51%
    16:00 +21°C° 0 mm 1 mps 747 mmHg 54%
    17:00 +20°C° 0 mm 1 mps 747 mmHg 56%
    18:00 +19°C° 0 mm 1 mps 747 mmHg 57%
    19:00 +19°C° 0 mm 1 mps 747 mmHg 58%
    20:00 +18°C° 0 mm 1 mps 748 mmHg 59%
    21:00 +16°C° 0 mm 2 mps 748 mmHg 59%
    22:00 +16°C° 0 mm 2 mps 748 mmHg 60%
    23:00 +16°C° 0 mm 2 mps 748 mmHg 61%

    17 December, Tuesday

    Time Temperature Precipitation Wind Pressure Humidity
    00:00 +15°C° 0 mm 2 mps 748 mmHg 61%
    01:00 +15°C° 0 mm 2 mps 748 mmHg 60%
    02:00 +14°C° 0 mm 2 mps 747 mmHg 60%
    03:00 +14°C° 0 mm 2 mps 747 mmHg 62%
    04:00 +14°C° 0 mm 2 mps 748 mmHg 63%
    05:00 +13°C° 0 mm 2 mps 748 mmHg 64%
    06:00 +14°C° 0 mm 2 mps 748 mmHg 64%
    07:00 +14°C° 0 mm 2 mps 749 mmHg 63%
    08:00 +15°C° 0 mm 2 mps 749 mmHg 62%
    09:00 +17°C° 0 mm 2 mps 749 mmHg 56%
    10:00 +19°C° 0 mm 2 mps 750 mmHg 50%
    11:00 +21°C° 0 mm 2 mps 750 mmHg 44%
    12:00 +21°C° 0 mm 2 mps 749 mmHg 41%
    13:00 +22°C° 0 mm 3 mps 748 mmHg 39%
    14:00 +22°C° 0 mm 3 mps 747 mmHg 36%
    15:00 +21°C° 0 mm 2 mps 747 mmHg 40%
    16:00 +19°C° 0 mm 2 mps 747 mmHg 44%
    17:00 +18°C° 0 mm 2 mps 747 mmHg 47%
    18:00 +17°C° 0 mm 2 mps 747 mmHg 49%
    19:00 +17°C° 0 mm 2 mps 748 mmHg 50%
    20:00 +16°C° 0 mm 2 mps 748 mmHg 51%
    21:00 +15°C° 0 mm 2 mps 748 mmHg 51%
    22:00 +15°C° 0 mm 2 mps 748 mmHg 51%
    23:00 +15°C° 0 mm 2 mps 748 mmHg 51%
    Show more